Total_Precipitation_Accumulation
0.00 0.02 0.07 0.04 0.04 0.04 0.05 0.05 0.06 0.06 0.08 0.10 0.11 0.12 0.15 0.15 0.13 0.10 0.10 0.09 0.11 0.15 0.19 0.22 0.22 0.21 0.19 0.18 0.15 0.08 0.03 0.01 0.00 0.00 0.00 0.01 0.02 0.02 0.02 0.03 0.04 0.05 0.06
0.00 0.02 0.06 0.05 0.05 0.06 0.06 0.06 0.05 0.05 0.07 0.10 0.13 0.13 0.12 0.12 0.11 0.09 0.07 0.08 0.11 0.16 0.21 0.21 0.15 0.08 0.04 0.02 0.02 0.02 0.02 0.01 0.00 0.00 0.00 0.00 0.01 0.01 0.02 0.02 0.04 0.05 0.06
0.00 0.02 0.05 0.06 0.06 0.06 0.06 0.05 0.04 0.05 0.07 0.09 0.10 0.08 0.07 0.07 0.06 0.07 0.07 0.08 0.10 0.12 0.13 0.10 0.05 0.02 0.01 0.00 0.00 0.00 0.00 0.00 0.00 0.00 0.00 0.00 0.00 0.01 0.01 0.01 0.03 0.03 0.05
0.00 0.02 0.04 0.07 0.06 0.05 0.05 0.05 0.04 0.06 0.06 0.06 0.06 0.05 0.05 0.05 0.07 0.08 0.07 0.06 0.05 0.04 0.02 0.01 0.00 0.00 0.00 0.00 0.00 0.00 0.00 0.00 0.00 0.00 0.00 0.00 0.01 0.02 0.02 0.02 0.03 0.04 0.06
0.01 0.01 0.04 0.07 0.05 0.05 0.04 0.04 0.05 0.06 0.06 0.05 0.04 0.04 0.04 0.05 0.06 0.05 0.03 0.02 0.01 0.00 0.00 0.00 0.00 0.00 0.00 0.00 0.00 0.00 0.01 0.00 0.00 0.00 0.00 0.01 0.01 0.03 0.04 0.04 0.05 0.06 0.08
0.01 0.02 0.06 0.07 0.05 0.04 0.04 0.04 0.06 0.06 0.05 0.04 0.04 0.04 0.04 0.06 0.07 0.05 0.02 0.00 0.00 0.00 0.00 0.00 0.00 0.00 0.00 0.00 0.00 0.00 0.00 0.00 0.00 0.00 0.00 0.01 0.01 0.03 0.04 0.05 0.07 0.09 0.10
0.02 0.04 0.07 0.07 0.06 0.05 0.04 0.05 0.05 0.05 0.05 0.04 0.03 0.03 0.04 0.06 0.06 0.06 0.04 0.01 0.00 0.00 0.00 0.01 0.01 0.02 0.01 0.01 0.01 0.00 0.00 0.00 0.00 0.00 0.00 0.01 0.02 0.04 0.05 0.07 0.10 0.11 0.12
0.03 0.07 0.10 0.10 0.06 0.06 0.05 0.05 0.04 0.05 0.05 0.04 0.03 0.03 0.03 0.03 0.05 0.09 0.08 0.02 0.01 0.01 0.02 0.02 0.03 0.03 0.02 0.01 0.01 0.00 0.00 0.00 0.00 0.00 0.00 0.00 0.02 0.06 0.07 0.08 0.09 0.10 0.10
0.08 0.09 0.11 0.11 0.07 0.06 0.06 0.05 0.04 0.04 0.04 0.03 0.03 0.02 0.02 0.01 0.02 0.05 0.08 0.05 0.03 0.02 0.03 0.03 0.03 0.03 0.02 0.01 0.01 0.00 0.00 0.00 0.00 0.00 0.00 0.01 0.03 0.08 0.10 0.11 0.13 0.14 0.13
0.15 0.13 0.11 0.09 0.07 0.07 0.08 0.05 0.04 0.03 0.03 0.03 0.02 0.01 0.01 0.00 0.01 0.02 0.02 0.03 0.02 0.02 0.02 0.02 0.03 0.03 0.02 0.00 0.00 0.00 0.00 0.00 0.00 0.00 0.00 0.02 0.08 0.15 0.16 0.16 0.17 0.17 0.14
0.24 0.19 0.13 0.09 0.07 0.07 0.08 0.05 0.03 0.03 0.02 0.02 0.01 0.01 0.00 0.01 0.01 0.01 0.00 0.00 0.01 0.01 0.01 0.02 0.02 0.01 0.00 0.00 0.00 0.00 0.00 0.00 0.00 0.00 0.01 0.04 0.11 0.14 0.12 0.11 0.10 0.09 0.07
0.31 0.25 0.19 0.12 0.07 0.07 0.07 0.05 0.04 0.02 0.02 0.01 0.01 0.00 0.00 0.01 0.01 0.01 0.00 0.00 0.01 0.01 0.00 0.00 0.00 0.00 0.00 0.00 0.00 0.00 0.00 0.00 0.00 0.00 0.01 0.02 0.05 0.06 0.05 0.04 0.03 0.03 0.03
0.43 0.33 0.24 0.17 0.11 0.08 0.07 0.04 0.03 0.02 0.01 0.01 0.00 0.00 0.00 0.00 0.01 0.01 0.01 0.01 0.01 0.00 0.00 0.00 0.00 0.00 0.00 0.00 0.00 0.00 0.00 0.00 0.00 0.00 0.00 0.00 0.02 0.03 0.03 0.02 0.02 0.02 0.03
0.53 0.41 0.33 0.23 0.16 0.12 0.08 0.05 0.03 0.02 0.01 0.00 0.00 0.00 0.00 0.00 0.00 0.01 0.02 0.01 0.01 0.00 0.00 0.00 0.00 0.00 0.00 0.00 0.00 0.00 0.00 0.00 0.00 0.00 0.00 0.00 0.00 0.02 0.02 0.02 0.03 0.04 0.04
0.59 0.52 0.45 0.36 0.26 0.19 0.14 0.08 0.04 0.03 0.01 0.01 0.00 0.00 0.00 0.00 0.00 0.00 0.01 0.01 0.01 0.00 0.00 0.00 0.00 0.00 0.00 0.00 0.00 0.00 0.00 0.00 0.00 0.00 0.00 0.00 0.00 0.01 0.01 0.02 0.04 0.07 0.06
0.53 0.51 0.52 0.45 0.37 0.28 0.20 0.14 0.10 0.07 0.04 0.02 0.01 0.00 0.00 0.00 0.00 0.00 0.00 0.01 0.01 0.00 0.00 0.00 0.00 0.00 0.00 0.00 0.00 0.00 0.00 0.00 0.00 0.00 0.00 0.00 0.00 0.00 0.01 0.02 0.04 0.07 0.09
0.43 0.44 0.45 0.49 0.47 0.38 0.31 0.25 0.20 0.16 0.11 0.05 0.03 0.02 0.01 0.00 0.00 0.00 0.00 0.00 0.00 0.01 0.00 0.00 0.00 0.00 0.00 0.00 0.00 0.00 0.00 0.00 0.00 0.00 0.00 0.00 0.00 0.00 0.00 0.02 0.04 0.07 0.10
0.42 0.38 0.39 0.45 0.48 0.44 0.41 0.40 0.29 0.25 0.19 0.12 0.09 0.06 0.03 0.02 0.01 0.00 0.00 0.01 0.01 0.01 0.01 0.02 0.02 0.02 0.01 0.01 0.01 0.01 0.01 0.01 0.01 0.00 0.00 0.00 0.00 0.00 0.00 0.01 0.03 0.05 0.08
0.42 0.38 0.36 0.41 0.44 0.51 0.59 0.57 0.44 0.36 0.28 0.20 0.16 0.11 0.08 0.06 0.06 0.03 0.02 0.02 0.02 0.02 0.03 0.04 0.04 0.04 0.04 0.04 0.04 0.03 0.03 0.02 0.01 0.01 0.01 0.01 0.01 0.01 0.01 0.01 0.01 0.02 0.03
0.44 0.46 0.42 0.44 0.51 0.59 0.71 0.73 0.65 0.49 0.36 0.28 0.21 0.16 0.16 0.14 0.15 0.11 0.06 0.06 0.06 0.05 0.05 0.06 0.08 0.09 0.07 0.07 0.06 0.03 0.02 0.02 0.01 0.01 0.01 0.01 0.01 0.02 0.02 0.01 0.01 0.01 0.01
0.43 0.46 0.43 0.45 0.51 0.57 0.58 0.52 0.46 0.41 0.37 0.32 0.26 0.25 0.25 0.24 0.25 0.21 0.14 0.11 0.10 0.09 0.09 0.13 0.16 0.13 0.11 0.12 0.09 0.04 0.01 0.01 0.01 0.01 0.01 0.01 0.01 0.02 0.02 0.02 0.02 0.01 0.01
0.35 0.39 0.40 0.42 0.47 0.46 0.43 0.47 0.50 0.53 0.49 0.44 0.39 0.34 0.32 0.32 0.31 0.26 0.22 0.21 0.22 0.20 0.17 0.18 0.18 0.15 0.15 0.17 0.15 0.12 0.04 0.01 0.00 0.01 0.01 0.01 0.02 0.02 0.02 0.03 0.03 0.02 0.02
0.25 0.31 0.36 0.38 0.40 0.44 0.51 0.64 0.67 0.66 0.57 0.48 0.41 0.37 0.36 0.39 0.39 0.34 0.32 0.32 0.30 0.28 0.23 0.24 0.25 0.24 0.21 0.19 0.18 0.19 0.11 0.03 0.02 0.01 0.01 0.02 0.02 0.02 0.02 0.03 0.03 0.03 0.03
0.14 0.23 0.32 0.38 0.42 0.47 0.58 0.61 0.60 0.54 0.47 0.43 0.43 0.47 0.49 0.48 0.48 0.44 0.41 0.38 0.36 0.33 0.28 0.28 0.29 0.27 0.24 0.19 0.17 0.15 0.15 0.11 0.10 0.05 0.02 0.03 0.03 0.02 0.03 0.04 0.04 0.04 0.04
0.09 0.16 0.24 0.32 0.36 0.43 0.50 0.53 0.56 0.48 0.38 0.38 0.39 0.37 0.37 0.35 0.37 0.39 0.40 0.39 0.36 0.34 0.33 0.33 0.32 0.30 0.26 0.22 0.20 0.20 0.19 0.13 0.10 0.12 0.08 0.05 0.05 0.06 0.06 0.05 0.05 0.05 0.06
0.04 0.09 0.16 0.22 0.25 0.29 0.36 0.42 0.41 0.37 0.33 0.33 0.32 0.32 0.30 0.28 0.29 0.30 0.33 0.33 0.34 0.34 0.35 0.36 0.38 0.37 0.34 0.29 0.24 0.23 0.24 0.20 0.14 0.14 0.16 0.12 0.10 0.09 0.07 0.07 0.07 0.08 0.09